Weerstation Grootegast  Weerstation Grootegast


15 daagse weersverwachting Holstebro (DK)

  • Overzicht
  • Per uur
  • 15 dagen
  • Extra
  • Vergelijk
  • Kaarten
  • Dagkaart
  • Meer »
  • Info
  • Statistieken
  • Directe link
    Temp 6h Neerslag Wind  
 08:44     16:30    Daglengte: 7:46 Vandaag
19:00
 
2
 08:43     16:32    Daglengte: 7:49 Morgen
01:00
1.3 mm
4
07:00
13.3 mm
8
13:00
20.3 mm
10
19:00
22.6 mm
10
 08:41     16:34    Daglengte: 7:53 Donderdag 21 Jan
01:00
10.4 mm
8
07:00
3.6 mm
9
13:00
27.6 mm
13
warningclass
19:00
18.2 mm
13
warningclass
 08:40     16:36    Daglengte: 7:56 Vrijdag 22 Jan
01:00
20.0 mm
12
warningclass
07:00
11.1 mm
9
13:00
69.4 mm
10
Locatie info
Region: Midtjylland
Latitude: 56.3601°N
Longitude: 8.6161°E
16 masl
Temp/Neerslag /Baro Onweer/DauwpuntSneeuw
    Temp Baro 1h Neerslag Dauwpunt Wind UV BewolkingSneeuw  
 08:44     16:30    Daglengte: 7:46 Vandaag
19:00
Voelt als: 0.2°
996.6 hPa
49%
2.1°
2
Windvlaag: 3 m/s
91%1 cm
20:00
Voelt als: 0.2°
996.4 hPa
71%
2.1°
2
Windvlaag: 3 m/s
89%1 cm
21:00
Voelt als: -0.1°
996.1 hPa
24%
2.2°
2
Windvlaag: 3.7 m/s
89%1 cm
22:00
Voelt als: -0.5°
995.8 hPa
68%
2.1°
3
Windvlaag: 4.2 m/s
91%1 cm
23:00
Voelt als: -0.5°
995.4 hPa
79%
2.2°
3
Windvlaag: 4.4 m/s
90%1 cm
 08:43     16:32    Daglengte: 7:49 Morgen
00:00
Voelt als: -0.7°
994.7 hPa 0.4 mm
82%
2.3°
3
Windvlaag: 4.6 m/s
90%1 cm
01:00
Voelt als: -0.9°
993.6 hPa 0.9 mm
82%
2.3°
4
Windvlaag: 5.3 m/s
91%2 cm
02:00
Voelt als: -1.3°
992.3 hPa 1.3 mm
82%
2.5°
4
Windvlaag: 6.3 m/s
91%2 cm
03:00
Voelt als: -1.2°
991.0 hPa 2.0 mm
82%
2.8°
5
Windvlaag: 7.6 m/s
91%2 cm
04:00
Voelt als: -0.3°
989.9 hPa 2.5 mm
82%
3.3°
5
Windvlaag: 7.4 m/s
91%2 cm
05:00
Voelt als: 1.2°
989.1 hPa 2.2 mm
82%
4.7°
5
Windvlaag: 9.6 m/s
91%2 cm
06:00
Voelt als: 2.0°
988.5 hPa 2.4 mm
82%
5.6°
7
Windvlaag: 12.5 m/s
91%2 cm
07:00
Voelt als: 2.1°
988.0 hPa 2.9 mm
82%
5.9°
8
Windvlaag: 14.7 m/s
91%2 cm
08:00
Voelt als: 1.8°
987.7 hPa 3.0 mm
82%
5.9°
9
Windvlaag: 15.2 m/s
91%2 cm
09:00
Voelt als: 2.0°
987.5 hPa 2.9 mm
82%
6.1°
9
Windvlaag: 14.8 m/s
91%2 cm
10:00
Voelt als: 2.1°
987.4 hPa 3.3 mm
82%
6.3°
10
Windvlaag: 15.8 m/s
91%2 cm
11:00
Voelt als: 2.5°
987.3 hPa 3.7 mm
82%
6.5°
10
Windvlaag: 15.9 m/s
91%2 cm
12:00
Voelt als: 2.5°
987.2 hPa 3.6 mm
82%
6.6°
10
Windvlaag: 16.1 m/s
91%2 cm
13:00
Voelt als: 2.6°
987.0 hPa 3.8 mm
82%
6.7°
10
Windvlaag: 15.8 m/s
91%2 cm
14:00
Voelt als: 2.6°
986.8 hPa 3.8 mm
82%
6.6°
10
Windvlaag: 15.6 m/s
91%2 cm
15:00
Voelt als: 2.4°
986.8 hPa 3.4 mm
82%
6.4°
10
Windvlaag: 16.1 m/s
91%2 cm
16:00
Voelt als: 2.3°
986.8 hPa 3.5 mm
82%
6.3°
10
Windvlaag: 16.4 m/s
91%2 cm
17:00
Voelt als: 2.1°
987.0 hPa 4.5 mm
29%
6.1°
10
Windvlaag: 16.2 m/s
91%1 cm
18:00
Voelt als: 1.9°
986.8 hPa 4.2 mm
73%
5.9°
10
Windvlaag: 15.8 m/s
91%1 cm
19:00
Voelt als: 1.7°
986.9 hPa 3.1 mm
82%
5.7°
10
Windvlaag: 15.3 m/s
91%1 cm
20:00
Voelt als: 1.4°
986.7 hPa 3.4 mm
82%
5.5°
10
Windvlaag: 15.1 m/s
89%1 cm
21:00
Voelt als: 1.3°
986.5 hPa 3.6 mm
82%
5.3°
9
Windvlaag: 15.2 m/s
91%1 cm
22:00
Voelt als: 1.2°
986.2 hPa 3.5 mm
82%
4.7°
9
Windvlaag: 14.8 m/s
91%1 cm
23:00
Voelt als: 0.8°
985.8 hPa
22%
3.5°
9
Windvlaag: 13.8 m/s
87%1 cm
 08:41     16:34    Daglengte: 7:53 Donderdag 21 Jan
00:00
Voelt als: 0.9°
985.3 hPa
14%
2.9°
8
Windvlaag: 13.9 m/s
83%1 cm
01:00
Voelt als: 1.0°
984.7 hPa
15%
2.5°
8
Windvlaag: 13.5 m/s
81%1 cm
02:00
Voelt als: 1.0°
983.9 hPa
77%
2.8°
8
Windvlaag: 13.8 m/s
87%1 cm
03:00
Voelt als: 1.2°
983.1 hPa
82%
2.8°
7
Windvlaag: 13.4 m/s
87%1 cm
04:00
Voelt als: 1.1°
982.2 hPa
79%
2.8°
8
Windvlaag: 13.1 m/s
85%1 cm
05:00
Voelt als: 1.1°
981.2 hPa
14%
3.3°
8
Windvlaag: 13 m/s
51%1 cm
06:00
Voelt als: 1.0°
980.2 hPa
26%
3.5°
8
Windvlaag: 13.6 m/s
82%1 cm
07:00
Voelt als: 0.9°
979.2 hPa 3.6 mm
82%
4.0°
9
Windvlaag: 15.4 m/s
90%1 cm
08:00
Voelt als: 1.3°
978.0 hPa 4.3 mm
82%
4.4°
10
Windvlaag: 16.4 m/s
90%1 cm
09:00
Voelt als: 1.2°
977.3 hPa 5.2 mm
82%
4.9°
11
Windvlaag: 18.5 m/s
88%1 cm warningclass
10:00
Voelt als: 1.1°
977.0 hPa 6.6 mm
31%
4.6°
12
Windvlaag: 20.7 m/s
90%1 cm warningclass
11:00
Voelt als: 0.1°
977.6 hPa 5.7 mm
82%
3.0°
14
Windvlaag: 23.1 m/s
51%1 cm warningclass
12:00
Voelt als: -0.2°
977.9 hPa
31%
2.6°
13
Windvlaag: 22.9 m/s
59%1 cm warningclass
13:00
Voelt als: -0.5°
978.5 hPa 5.8 mm
26%
3.2°
13
Windvlaag: 23.2 m/s
27%1 cm warningclass
14:00
Voelt als: -0.3°
978.9 hPa
14%
1.8°
13
Windvlaag: 22.3 m/s
29%1 cm warningclass
15:00
Voelt als: -0.3°
979.2 hPa
30%
1.3°
12
Windvlaag: 21.8 m/s
30%1 cm warningclass
16:00
Voelt als: -0.8°
978.8 hPa
95%
0.1°
13
Windvlaag: 21.8 m/s
94%1 cm warningclass
17:00
Voelt als: -1.1°
978.5 hPa 5.9 mm
100%
0.8°
13
Windvlaag: 22.9 m/s
97%1 cm warningclass
18:00
Voelt als: -1.4°
978.0 hPa 6.2 mm
100%
1.1°
14
Windvlaag: 22.7 m/s
72%1 cm warningclass
19:00
Voelt als: -1.4°
977.6 hPa 6.1 mm
100%
0.7°
13
Windvlaag: 22.5 m/s
71%1 cm warningclass
20:00
Voelt als: -1.4°
976.7 hPa 6.3 mm
100%
1.0°
13
Windvlaag: 23 m/s
96%1 cm warningclass
21:00
Voelt als: -1.4°
976.3 hPa 7.3 mm
100%
0.1°
14
Windvlaag: 24.3 m/s
96%1 cm warningclass
22:00
Voelt als: -1.0°
976.5 hPa 6.4 mm
100%
0.3°
14
Windvlaag: 22.5 m/s
87%1 cm warningclass
23:00
Voelt als: -1.1°
977.2 hPa
36%
0.2°
14
Windvlaag: 22 m/s
87%1 cm warningclass
 08:40     16:36    Daglengte: 7:56 Vrijdag 22 Jan
00:00
Voelt als: -1.1°
977.5 hPa
49%
0.4°
13
Windvlaag: 21.7 m/s
88% warningclass
01:00
Voelt als: -1.1°
977.6 hPa
31%
0.4°
12
Windvlaag: 20.5 m/s
86% warningclass
02:00
Voelt als: -1.0°
977.7 hPa
31%
0.6°
11
Windvlaag: 17.6 m/s
83% warningclass
03:00
Voelt als: -1.0°
977.7 hPa
37%
0.9°
10
Windvlaag: 16.6 m/s
79%
04:00
Voelt als: -0.9°
977.7 hPa
47%
1.2°
10
Windvlaag: 16.4 m/s
71%
05:00
Voelt als: -0.8°
977.6 hPa
28%
1.4°
9
Windvlaag: 15.5 m/s
61%
06:00
Voelt als: -0.9°
977.6 hPa
88%
1.7°
9
Windvlaag: 14.5 m/s
64%
07:00
Voelt als: -1.0°
977.7 hPa 11.1 mm
100%
1.9°
9
Windvlaag: 6.8 m/s
61%
08:00
Voelt als: -1.0°
978.0 hPa 11.7 mm
100%
1.8°
9
Windvlaag: 11.4 m/s
63%
09:00
Voelt als: -0.4°
978.5 hPa 11.4 mm
100%
2.0°
9
Windvlaag: 11.4 m/s
57%
10:00
Voelt als: -0.2°
979.0 hPa 11.1 mm
100%
2.1°
9
Windvlaag: 11 m/s
54%
11:00
Voelt als: -0.0°
979.5 hPa 11.3 mm
100%
2.2°
10
Windvlaag: 11.3 m/s
57%
12:00
Voelt als: 0.2°
980.1 hPa 11.7 mm
100%
2.3°
10
Windvlaag: 11.6 m/s
53%
13:00
Voelt als: 0.5°
980.6 hPa 12.0 mm
99%
2.4°
10
Windvlaag: 5 m/s
51%
14:00
Voelt als: 0.7°
977.0 hPa 12.1 mm
92%
2.5°
9
Windvlaag: 15.3 m/s
57%
15:00
Voelt als: 0.7°
977.7 hPa 12.1 mm
96%
2.5°
9
Windvlaag: 14.1 m/s
66%
16:00
Voelt als: 0.4°
978.5 hPa 12.2 mm
100%
2.4°
8
Windvlaag: 11.1 m/s
67%
17:00
Voelt als: 0.3°
979.3 hPa 12.2 mm
94%
2.4°
8
Windvlaag: 10.7 m/s
68%
18:00
Voelt als: 0.3°
980.2 hPa
90%
2.5°
8
Windvlaag: 10.4 m/s
65%
Temp/Neerslag /Baro Onweer/DauwpuntSneeuw
    Temp Baro Neerslag Dauwpunt Wind BewolkingSneeuw  
 08:44     16:30    Daglengte: 7:46 Vandaag
19:00
Voelt als: 0.2°
996.6 hPa   2.1°
2
91%1 cm
22:00
Voelt als: -0.5°
995.8 hPa   2.1°
3
91%1 cm
 08:43     16:32    Daglengte: 7:49 Morgen
01:00
Voelt als: -0.9°
993.6 hPa 1.3 mm 2.3°
4
91%2 cm
04:00
Voelt als: -0.3°
989.9 hPa 5.8 mm 3.3°
5
91%2 cm
07:00
Voelt als: 2.1°
988.0 hPa 7.5 mm 5.9°
8
91%2 cm
10:00
Voelt als: 2.1°
987.4 hPa 9.2 mm 6.3°
10
91%2 cm
13:00
Voelt als: 2.6°
987.0 hPa 11.1 mm 6.7°
10
91%2 cm
16:00
Voelt als: 2.3°
986.8 hPa 10.7 mm 6.3°
10
91%2 cm
19:00
Voelt als: 1.7°
986.9 hPa 11.8 mm 5.7°
10
91%1 cm
22:00
Voelt als: 1.2°
986.2 hPa 10.4 mm 4.7°
9
91%1 cm
 08:41     16:34    Daglengte: 7:53 Donderdag 21 Jan
01:00
Voelt als: 1.0°
984.7 hPa   2.5°
8
81%1 cm
04:00
Voelt als: 1.1°
982.2 hPa   2.8°
8
85%1 cm
07:00
Voelt als: 0.9°
979.2 hPa 3.6 mm 4.0°
9
90%1 cm
10:00
Voelt als: 1.1°
977.0 hPa 16.1 mm 4.6°
12
90%1 cm warningclass
13:00
Voelt als: -0.5°
978.5 hPa 11.5 mm 3.2°
13
27%1 cm warningclass
16:00
Voelt als: -0.8°
978.8 hPa   0.1°
13
94%1 cm warningclass
19:00
Voelt als: -1.4°
977.6 hPa 18.2 mm 0.7°
13
71%1 cm warningclass
22:00
Voelt als: -1.0°
976.5 hPa 20.0 mm 0.3°
14
87%1 cm warningclass
 08:40     16:36    Daglengte: 7:56 Vrijdag 22 Jan
01:00
Voelt als: -1.1°
977.6 hPa   0.4°
12
86% warningclass
04:00
Voelt als: -0.9°
977.7 hPa   1.2°
10
71%
07:00
Voelt als: -1.0°
977.7 hPa 11.1 mm 1.9°
9
61%
10:00
Voelt als: -0.2°
979.0 hPa 34.3 mm 2.1°
9
54%
13:00
Voelt als: 0.5°
980.6 hPa 35.1 mm 2.4°
10
51%
16:00
Voelt als: 0.4°
978.5 hPa 36.5 mm 2.4°
8
67%
19:00
Voelt als: 0.1°
981.0 hPa 36.5 mm 2.5°
8
65%
22:00
Voelt als: -0.2°
987.3 hPa 38.8 mm 1.9°
7
48%
 08:38     16:38    Daglengte: 8:00 Zaterdag 23 Jan
01:00
Voelt als: -0.2°
988.6 hPa 39.0 mm 1.7°
6
37%
04:00
Voelt als: -0.7°
989.2 hPa 39.1 mm 1.4°
6
54%
07:00
Voelt als: -1.2°
989.7 hPa 39.1 mm 1.1°
5
70%
10:00
Voelt als: -0.2°
990.1 hPa 39.1 mm 1.7°
5
74%
13:00
Voelt als: 1.0°
990.5 hPa 39.1 mm 2.2°
5
77%
16:00
Voelt als: 0.1°
989.9 hPa 39.1 mm 1.8°
4
75%
19:00
Voelt als: -0.7°
989.4 hPa 39.2 mm 1.2°
3
73%
22:00
Voelt als: -0.8°
989.2 hPa 39.2 mm 0.7°
2
82%
 08:36     16:40    Daglengte: 8:04 Zondag 24 Jan
01:00
Voelt als: -0.8°
989.0 hPa 39.2 mm 0.2°
2
91%
04:00
Voelt als: -1.0°
988.6 hPa 39.2 mm -0.0°
2
91% warningclass
07:00
Voelt als: -1.2°
988.3 hPa 39.2 mm -0.3°
2
92% warningclass
10:00
Voelt als: -0.3°
989.4 hPa 39.2 mm 0.3°
2
88%
13:00
Voelt als: 0.9°
990.5 hPa 39.2 mm 0.9°
3
85%
16:00
Voelt als: 0.3°
990.9 hPa 39.4 mm 1.0°
3
88%
19:00
Voelt als: -0.4°
991.4 hPa 39.6 mm 0.9°
2
91%
22:00
Voelt als: -0.5°
991.9 hPa 39.6 mm 0.6°
2
89%
 08:35     16:42    Daglengte: 8:07 Maandag 25 Jan
01:00
Voelt als: -0.5°
992.5 hPa 39.6 mm 0.4°
2
87%
04:00
Voelt als: -1.0°
993.4 hPa 39.6 mm -0.1°
2
86% warningclass
07:00
Voelt als: -1.6°
994.4 hPa 39.6 mm -0.5°
2
85% warningclass
10:00
Voelt als: -0.3°
995.5 hPa 39.6 mm 0.3°
2
69%
13:00
Voelt als: 1.2°
996.6 hPa 39.6 mm 1.1°
3
54%
16:00
Voelt als: 0.0°
998.5 hPa 39.6 mm 0.6°
3
39%
19:00
Voelt als: -1.1°
1000.4 hPa 39.6 mm -0.0°
2
25%
22:00
Voelt als: -1.3°
1001.4 hPa 39.6 mm -0.0°
3
30%
 08:33     16:45    Daglengte: 8:12 Dinsdag 26 Jan
01:00
Voelt als: -1.5°
1002.2 hPa 39.6 mm -0.0°
3
34%
04:00
Voelt als: -1.2°
1002.6 hPa 40.3 mm 0.1°
2
45%
07:00
Voelt als: -1.2°
1002.9 hPa 40.9 mm -0.1°
2
56%
10:00
Voelt als: 0.1°
1003.1 hPa 41.2 mm 0.6°
2
55%
13:00
Voelt als: 1.4°
1003.2 hPa 41.3 mm 1.3°
3
55%
16:00
Voelt als: 0.3°
1003.3 hPa   0.6°
2
54%
19:00
Voelt als: -0.8°
1003.3 hPa 82.7 mm 0.1°
2
53%
 08:31     16:47    Daglengte: 8:16 Woensdag 27 Jan
01:00
Voelt als: -2.4°
1001.2 hPa 87.0 mm -0.6°
2
81% warningclass
07:00
Voelt als: -2.1°
1000.3 hPa 91.8 mm -0.5°
2
91% warningclass
13:00
Voelt als: -0.4°
1001.0 hPa 92.9 mm 0.3°
3
77%
19:00
Voelt als: -1.7°
1001.0 hPa 95.7 mm 0.2°
3
81%
 08:29     16:49    Daglengte: 8:20 Donderdag 28 Jan
01:00
Voelt als: -2.3°
1003.4 hPa 96.0 mm -0.7°
3
87% warningclass
07:00
-0°
Voelt als: -1.7°
1003.2 hPa 96.3 mm -1.5°
1
87% warningclass
13:00
Voelt als: -1.2°
1002.9 hPa 96.3 mm -1.8°
3
88%
19:00
Voelt als: -2.1°
1002.1 hPa 96.3 mm -1.4°
2
90% warningclass
 08:28     16:51    Daglengte: 8:23 Vrijdag 29 Jan
01:00
Voelt als: -2.0°
1009.4 hPa 96.3 mm -2.9°
2
0% warningclass
07:00
Voelt als: -2.8°
1011.8 hPa 96.3 mm -0.6°
4
0%
13:00
Voelt als: 0.2°
1013.0 hPa 96.4 mm -0.9°
4
1%
19:00
Voelt als: 2.6°
1003.3 hPa 0.7 mm 0.5°
0
80%
 08:26     16:53    Daglengte: 8:27 Zaterdag 30 Jan
01:00
Voelt als: 1.5°
1003.5 hPa 0.7 mm 0.3°
1
74%
07:00
Voelt als: 1.5°
1002.7 hPa 0.4 mm -0.1°
1
67%
13:00
Voelt als: 0.2°
1001.9 hPa 0.6 mm 0.2°
3
79%
19:00
Voelt als: -0.2°
1000.3 hPa 1.4 mm 0.3°
2
89%
 08:24     16:56    Daglengte: 8:32 Zondag 31 Jan
01:00
Voelt als: -1.0°
999.5 hPa 1.6 mm 0.1°
3
89%
07:00
Voelt als: -0.2°
997.6 hPa 1.7 mm 0.3°
2
86%
13:00
Voelt als: 2.5°
998.3 hPa   0.6°
1
90%
19:00
Voelt als: 1.6°
998.0 hPa 0.9 mm 0.6°
1
85%
 08:22     16:58    Daglengte: 8:36 Maandag 01 Feb
01:00
Voelt als: 1.6°
998.0 hPa   0.4°
1
81%
07:00
Voelt als: -0.0°
997.2 hPa 0.4 mm -0.0°
2
83%
13:00
Voelt als: 2.0°
997.9 hPa 1.2 mm 0.0°
1
86%
19:00
Voelt als: 0.4°
998.4 hPa 0.5 mm -0.3°
1
81%
 08:20     17:00    Daglengte: 8:40 Dinsdag 02 Feb
01:00
Voelt als: -0.3°
999.4 hPa 0.7 mm -0.2°
2
80%
07:00
Voelt als: -0.8°
999.7 hPa 0.5 mm -0.4°
2
81%
13:00
Voelt als: 1.1°
1001.0 hPa 0.5 mm -0.3°
2
86%
19:00
Voelt als: 0.4°
1002.2 hPa 0.5 mm -0.4°
1
86%
 08:18     17:02    Daglengte: 8:44 Woensdag 03 Feb
01:00
Voelt als: -0.2°
1003.2 hPa 0.6 mm -0.7°
2
84%
07:00
Voelt als: -0.9°
1003.3 hPa 0.5 mm -0.5°
2
78%
13:00
Voelt als: 1.7°
1004.8 hPa 0.7 mm -0.1°
1
84%
  CAPE Lifted Index Hail Supercell Tornado SRH 3km CL BTM PRES CL TOP PRES Swiss DWD icon SMHI TS
 08:44     16:30    Daglengte: 7:46 Vandaag
19:00 2 J/kg 7.8 K 0 % 0 % 0 % 0 m²/s² 0 0 15.06 3
20:00 0 J/kg 8.1 K 0 % 0 % 0 % 0 m²/s² 0 0 14.07 3
21:00 0 J/kg 8.1 K 0 % 0 % 0 % 0 m²/s² 0 0 9.99 3
22:00 0 J/kg 8.1 K 0 % 0 % 0 % 0 m²/s² 0 0 8.49 3
23:00 0 J/kg 7.9 K 0 % 0 % 0 % 0 m²/s² 0 0 8.29 51
 08:43     16:32    Daglengte: 7:49 Morgen
00:00 2 J/kg 7.9 K 0 % 0 % 0 % 0 m²/s² 0 0 8.29 61
01:00 2 J/kg 7.1 K 0 % 0 % 0 % 0 m²/s² 0 0 7.46 61
02:00 3 J/kg 5.6 K 0 % 0 % 0 % 0 m²/s² 0 0 5.93 61
03:00 2 J/kg 5.1 K 0 % 0 % 0 % 0 m²/s² 0 0 5.43 61
04:00 2 J/kg 4.1 K 0 % 0 % 0 % 0 m²/s² 0 0 4.43 61
05:00 1 J/kg 4.1 K 0 % 0 % 0 % 0 m²/s² 0 0 4.43 61
06:00 1 J/kg 2.9 K 0 % 0 % 0 % 0 m²/s² 0 0 3.32 61
07:00 1 J/kg 2.4 K 0 % 0 % 0 % 0 m²/s² 0 0 2.73 61
08:00 1 J/kg 2.3 K 0 % 0 % 0 % 0 m²/s² 0 0 2.63 61
09:00 0 J/kg 2.1 K 0 % 0 % 0 % 0 m²/s² 0 0 2.4 61
10:00 0 J/kg 2.2 K 0 % 0 % 0 % 0 m²/s² 0 0 2.5 55
11:00 0 J/kg 1.5 K 0 % 0 % 0 % 0 m²/s² 0 0 1.83 61
12:00 1 J/kg 1.6 K 0 % 0 % 0 % 0 m²/s² 0 0 2.89 61
13:00 1 J/kg 2.9 K 0 % 0 % 0 % 0 m²/s² 0 0 4.34 53
14:00 1 J/kg 2.7 K 0 % 0 % 0 % 0 m²/s² 0 0 4.08 55
15:00 1 J/kg 3.0 K 0 % 0 % 0 % 0 m²/s² 0 0 3.45 55
16:00 1 J/kg 2.3 K 0 % 0 % 0 % 0 m²/s² 0 0 2.6 55
17:00 0 J/kg 2.8 K 0 % 0 % 0 % 0 m²/s² 0 0 3.16 3
18:00 0 J/kg 3.0 K 0 % 0 % 0 % 0 m²/s² 0 0 3.33 3
19:00 0 J/kg 3.3 K 0 % 0 % 0 % 0 m²/s² 0 0 3.54 61
20:00 0 J/kg 3.7 K 0 % 0 % 0 % 0 m²/s² 0 0 3.94 61
21:00 0 J/kg 4.1 K 0 % 0 % 0 % 0 m²/s² 0 0 4.34 61
22:00 0 J/kg 3.3 K 0 % 0 % 0 % 0 m²/s² 0 0 3.6 61
23:00 0 J/kg 3.1 K 0 % 0 % 0 % 0 m²/s² 0 0 3.34 3
 08:41     16:34    Daglengte: 7:53 Donderdag 21 Jan
00:00 0 J/kg 3.2 K 0 % 0 % 0 % 0 m²/s² 0 0 3.95 2
01:00 0 J/kg 3.6 K 0 % 0 % 0 % 0 m²/s² 0 0 4.32 2
02:00 0 J/kg 4.0 K 0 % 0 % 0 % 0 m²/s² 0 0 5.74 3
03:00 0 J/kg 4.6 K 0 % 0 % 0 % 0 m²/s² 0 0 4.96 61
04:00 0 J/kg 4.9 K 0 % 0 % 0 % 0 m²/s² 0 0 5.35 3
05:00 0 J/kg 3.3 K 0 % 0 % 0 % 0 m²/s² 0 0 3.87 2
06:00 0 J/kg 3.0 K 0 % 0 % 0 % 0 m²/s² 0 0 4.56 3
07:00 0 J/kg 3.3 K 0 % 0 % 0 % 0 m²/s² 0 0 4.2 61
08:00 0 J/kg 3.6 K 0 % 0 % 0 % 0 m²/s² 0 0 3.96 61
09:00 50 J/kg 5.6 K 0 % 0 % 0 % 0 m²/s² 0 0 5.96 61
10:00 27 J/kg 7.6 K 0 % 0 % 0 % 0 m²/s² 0 0 11.95 3
11:00 52 J/kg 5.6 K 0 % 0 % 0 % 0 m²/s² 0 0 10.25 2
12:00 77 J/kg 3.3 K 0 % 0 % 0 % 0 m²/s² 0 0 6.93 2
13:00 149 J/kg 1.7 K 0 % 0 % 0 % 0 m²/s² 0 0 3.17 2
14:00 189 J/kg 0.6 K 0 % 0 % 0 % 0 m²/s² 0 0 2.82 2
15:00 176 J/kg 0.8 K 0 % 0 % 0 % 0 m²/s² 0 0 2.27 2
16:00 89 J/kg 1.2 K 0 % 0 % 0 % 0 m²/s² 0 0 2.82 3
17:00 43 J/kg 2.2 K 0 % 0 % 0 % 0 m²/s² 0 0 2.77 3
18:00 21 J/kg 3.9 K 0 % 0 % 0 % 0 m²/s² 0 0 4.47 80
19:00 1 J/kg 5.7 K 0 % 0 % 0 % 0 m²/s² 0 0 6.24 95
20:00 4 J/kg 5.6 K 0 % 0 % 0 % 0 m²/s² 0 0 6.08 80
21:00 9 J/kg 6.3 K 0 % 0 % 0 % 0 m²/s² 0 0 6.69 3
22:00 13 J/kg 7.0 K 0 % 0 % 0 % 0 m²/s² 0 0 7.51 2
23:00 10 J/kg 6.6 K 0 % 0 % 0 % 0 m²/s² 0 0 7.11 2
 08:40     16:36    Daglengte: 7:56 Vrijdag 22 Jan
00:00 12 J/kg 6.0 K 0 % 0 % 0 % 0 m²/s² 0 0 6.69 3
01:00 17 J/kg 6.1 K 0 % 0 % 0 % 0 m²/s² 0 0 7.03 2
02:00 9 J/kg 5.9 K 0 % 0 % 0 % 0 m²/s² 0 0 9.02 3
03:00 8 J/kg 5.5 K 0 % 0 % 0 % 0 m²/s² 0 0 11.95 3
04:00 22 J/kg 5.2 K 0 % 0 % 0 % 0 m²/s² 0 0 12.34 2
05:00 28 J/kg 4.9 K 0 % 0 % 0 % 0 m²/s² 0 0 12.31 2
06:00 24 J/kg 4.4 K 0 % 0 % 0 % 0 m²/s² 0 0 11.24 3
07:00 24 J/kg 4.0 K 0 % 0 % 0 % 0 m²/s² 0 0 8.89 61
08:00 36 J/kg 4.0 K 0 % 0 % 0 % 0 m²/s² 0 0 7.3 61
09:00 41 J/kg 3.7 K 0 % 0 % 0 % 0 m²/s² 0 0 4.66 61
10:00 28 J/kg 3.9 K 0 % 0 % 0 % 0 m²/s² 0 0 4.53 3
11:00 11 J/kg 4.4 K 0 % 0 % 0 % 0 m²/s² 0 0 4.94 80
12:00 5 J/kg 3.8 K 0 % 0 % 0 % 0 m²/s² 0 0 4.31 80
13:00 5 J/kg 3.1 K 0 % 0 % 0 % 0 m²/s² 0 0 3.58 80
14:00 58 J/kg 2.9 K 0 % 0 % 0 % 0 m²/s² 0 0 5 80
15:00 63 J/kg 3.0 K 0 % 0 % 0 % 0 m²/s² 0 0 6.63 80
16:00 51 J/kg 3.3 K 0 % 0 % 0 % 0 m²/s² 0 0 7.41 80
17:00 67 J/kg 3.0 K 0 % 0 % 0 % 0 m²/s² 0 0 5.64 80
18:00 72 J/kg 2.5 K 0 % 0 % 0 % 0 m²/s² 0 0 4 3
Temp Baro Wind Neerslag
  EWN Forecast EWN WRFDA DWD ICON FMI HIRLAM MET Norway GFS
 08:44     16:30    Daglengte: 7:46 Vandaag
19:00 2.1° 996.6 hPa 1.8 m/s 0.0 mm 1.1° 993.9 hPa 2.5 m/s 0.3 mm 2.9° 996.9 hPa 1.8 m/s -1.9 mm 2.2° 995.9 hPa 1.4 m/s 0.0 mm 2.4° 996.9 hPa 2.0 m/s 1.9° 996.8 hPa 2.2 m/s
22:00 2.2° 995.8 hPa 2.6 m/s 0.0 mm 1.6° 992.6 hPa 2.9 m/s 1.1 mm 2.6° 996.4 hPa 2.1 m/s 0.0 mm 3.0° 994.9 hPa 2.2 m/s 0.0 mm 2.3° 996.1 hPa 2.9 m/s 1.9° 995.9 hPa 3.0 m/s
 08:43     16:32    Daglengte: 7:49 Morgen
01:00 2.5° 993.6 hPa 3.6 m/s 1.3 mm 2.0° 990.8 hPa 3.9 m/s 2.6 mm 2.7° 994.0 hPa 3.6 m/s 1.1 mm 3.6° 992.8 hPa 3.3 m/s 0.0 mm 2.6° 993.8 hPa 3.7 m/s 2.2° 993.8 hPa 4.9 m/s
04:00 3.6° 989.9 hPa 4.7 m/s 5.8 mm 3.2° 986.6 hPa 5.2 m/s 14.4 mm 3.5° 991.0 hPa 4.2 m/s 5.4 mm 4.3° 988.5 hPa 5.3 m/s 0.0 mm 4.0° 990.0 hPa 3.7 m/s 3.7° 990.1 hPa 4.6 m/s
07:00 6.5° 988.0 hPa 8.4 m/s 7.5 mm 5.6° 984.7 hPa 7.3 m/s 25.6 mm 6.1° 988.4 hPa 5.7 m/s 4.7 mm 7.9° 985.3 hPa 9.0 m/s 0.0 mm 7.0° 988.7 hPa 9.2 m/s 6.2° 987.3 hPa 7.4 m/s
10:00 6.8° 987.4 hPa 9.5 m/s 9.2 mm 6.3° 983.4 hPa 9.2 m/s 39.4 mm 6.5° 988.0 hPa 5.9 m/s 2.7 mm 8.2° 984.6 hPa 11.2 m/s 0.0 mm 7.2° 988.3 hPa 10.2 m/s 7.1° 986.4 hPa 9.1 m/s
13:00 7.3° 987.0 hPa 9.7 m/s 11.1 mm 7.3° 984.3 hPa 9.5 m/s 53.5 mm 7.2° 987.7 hPa 7.0 m/s 2.4 mm 8.1° 984.3 hPa 10.8 m/s 0.0 mm 7.4° 988.1 hPa 10.4 m/s 7.8° 987.4 hPa 8.9 m/s
16:00 7.0° 986.8 hPa 9.8 m/s 10.7 mm 7.1° 983.9 hPa 9.3 m/s 55.7 mm 6.9° 987.8 hPa 7.2 m/s 2.1 mm 8.2° 984.2 hPa 10.2 m/s 0.0 mm 7.0° 988.1 hPa 10.3 m/s 7.5° 987.6 hPa 8.9 m/s
19:00 6.5° 986.9 hPa 9.5 m/s 11.8 mm 6.5° 984.0 hPa 10.1 m/s 57.6 mm 6.4° 987.7 hPa 6.8 m/s 0.5 mm 8.1° 984.4 hPa 10.2 m/s 0.0 mm 6.4° 988.3 hPa 9.4 m/s 7.0° 988.3 hPa 9.9 m/s
22:00 5.9° 986.2 hPa 8.7 m/s 10.4 mm 6.2° 983.2 hPa 9.8 m/s 65.1 mm 5.9° 986.5 hPa 6.6 m/s 1.8 mm 7.5° 984.5 hPa 11.1 m/s 0.0 mm 5.8° 987.8 hPa 7.4 m/s 6.3° 987.9 hPa 9.9 m/s
 08:41     16:34    Daglengte: 7:53 Donderdag 21 Jan
01:00 5.6° 984.7 hPa 8.1 m/s 0.0 mm 6.3° 981.5 hPa 8.2 m/s 71.4 mm 5.5° 985.2 hPa 6.2 m/s 0.0 mm 7.2° 983.4 hPa 10.3 m/s 0.0 mm 5.5° 986.0 hPa 7.6 m/s 6.1° 987.0 hPa 8.9 m/s
04:00 5.7° 982.2 hPa 7.8 m/s 0.0 mm 5.1° 978.2 hPa 8.6 m/s 72.2 mm 5.5° 982.6 hPa 6.5 m/s 0.1 mm 7.0° 981.8 hPa 10.1 m/s 0.0 mm 5.8° 983.9 hPa 6.3 m/s 6.1° 984.3 hPa 8.8 m/s
07:00 5.9° 979.2 hPa 9.4 m/s 3.6 mm 6.1° 974.3 hPa 10.4 m/s 72.4 mm 5.7° 979.0 hPa 7.4 m/s 0.2 mm 7.0° 980.1 hPa 10.5 m/s 0.0 mm 5.8° 980.1 hPa 8.4 m/s 7.4° 980.7 hPa 10.7 m/s
10:00 6.6° 977.0 hPa 12.4 m/s 16.1 mm 5.0° 972.2 hPa 12.3 m/s 82.0 mm 6.3° 978.5 hPa 8.9 m/s 2.0 mm 7.7° 979.2 hPa 12.2 m/s 0.0 mm 6.9° 977.2 hPa 12.6 m/s 7.0° 977.7 hPa 12.7 m/s
13:00 5.4° 978.5 hPa 12.8 m/s 11.5 mm 4.6° 972.8 hPa 12.7 m/s 83.5 mm 5.9° 980.2 hPa 10.2 m/s 0.0 mm 7.2° 979.2 hPa 9.3 m/s 0.0 mm 5.1° 978.4 hPa 14.4 m/s 6.1° 980.8 hPa 12.3 m/s
16:00 5.2° 978.8 hPa 12.7 m/s 0.0 mm 4.5° 969.8 hPa 12.8 m/s 84.2 mm 5.2° 980.0 hPa 8.5 m/s 0.0 mm 5.5° 979.5 hPa 14.6 m/s 5.6° 980.8 hPa 11.5 m/s
19:00 4.8° 977.6 hPa 12.7 m/s 18.2 mm 4.4° 965.8 hPa 17.6 m/s 85.0 mm 4.7° 978.7 hPa 9.8 m/s 1.8 mm 5.2° 979.1 hPa 12.5 m/s 5.6° 980.0 hPa 13.1 m/s
22:00 5.3° 976.5 hPa 14.2 m/s 20.0 mm 4.6° 964.8 hPa 19.9 m/s 92.6 mm 5.0° 976.2 hPa 9.1 m/s 0.8 mm 5.7° 978.9 hPa 14.2 m/s 5.7° 978.6 hPa 12.6 m/s
 08:40     16:36    Daglengte: 7:56 Vrijdag 22 Jan
01:00 4.9° 977.6 hPa 12.0 m/s 0.0 mm 4.8° 966.6 hPa 17.6 m/s 96.2 mm 4.8° 974.6 hPa 7.9 m/s 0.0 mm 5.3° 979.1 hPa 11.9 m/s 5.3° 976.9 hPa 10.1 m/s
04:00 4.5° 977.7 hPa 9.6 m/s 0.0 mm 4.5° 967.8 hPa 13.9 m/s 97.0 mm 4.5° 972.0 hPa 7.8 m/s 0.0 mm 4.8° 979.3 hPa 9.0 m/s 3.8° 972.5 hPa 7.5 m/s
07:00 4.3° 977.7 hPa 8.8 m/s 11.1 mm 4.4° 968.4 hPa 12.0 m/s 97.3 mm 4.1° 969.3 hPa 9.0 m/s 0.4 mm 4.3° 979.5 hPa 6.1 m/s 4.4° 971.4 hPa 9.6 m/s
10:00 5.0° 979.0 hPa 9.3 m/s 34.3 mm 4.4° 967.7 hPa 12.3 m/s 98.2 mm 5.3° 968.4 hPa 9.4 m/s 2.3 mm 5.1° 981.3 hPa 6.9 m/s 3.4° 971.8 hPa 12.1 m/s
13:00 5.7° 980.6 hPa 10.2 m/s 35.1 mm 4.4° 967.2 hPa 11.9 m/s 104.2 mm 6.0° 970.4 hPa 11.2 m/s 0.5 mm 5.9° 983.1 hPa 7.7 m/s 4.6° 973.4 hPa 11.9 m/s
16:00 5.3° 978.5 hPa 8.3 m/s 36.5 mm 5.1° 969.8 hPa 8.3 m/s 108.2 mm 5.5° 973.1 hPa 10.7 m/s 0.6 mm 5.2° 984.5 hPa 7.6 m/s 4.1° 974.3 hPa 11.7 m/s
19:00 4.9° 981.0 hPa 7.8 m/s 36.5 mm 5.3° 971.7 hPa 7.4 m/s 109.0 mm 5.2° 977.1 hPa 9.4 m/s 0.3 mm 4.6° 986.0 hPa 7.5 m/s 4.2° 975.9 hPa 10.9 m/s
22:00 4.4° 987.3 hPa 6.8 m/s 38.8 mm 4.3° 988.1 hPa 6.6 m/s 4.9° 978.3 hPa 8.9 m/s 38.8 mm
 08:38     16:38    Daglengte: 8:00 Zaterdag 23 Jan
01:00 4.2° 988.6 hPa 6.3 m/s 39.0 mm 4.2° 989.2 hPa 6.1 m/s 4.4° 982.2 hPa 8.8 m/s 39.0 mm
04:00 3.6° 989.2 hPa 5.6 m/s 39.1 mm 3.5° 989.5 hPa 5.4 m/s 4.0° 985.5 hPa 7.5 m/s 39.1 mm
07:00 2.9° 989.7 hPa 4.9 m/s 39.1 mm 2.9° 989.8 hPa 4.8 m/s 3.1° 988.1 hPa 6.3 m/s 39.1 mm
10:00 3.7° 990.1 hPa 4.8 m/s 39.1 mm 3.8° 990.1 hPa 4.8 m/s 2.9° 990.2 hPa 5.5 m/s 39.1 mm
13:00 4.6° 990.5 hPa 4.8 m/s 39.1 mm 4.6° 990.4 hPa 4.7 m/s 4.6° 991.6 hPa 5.3 m/s 39.1 mm
16:00 3.5° 989.9 hPa 3.8 m/s 39.1 mm 3.5° 989.7 hPa 3.9 m/s 3.0° 992.1 hPa 3.3 m/s 39.1 mm
19:00 2.3° 989.4 hPa 3.0 m/s 39.2 mm 2.4° 989.0 hPa 3.0 m/s 1.3° 993.4 hPa 2.4 m/s 39.2 mm
22:00 1.8° 989.2 hPa 2.4 m/s 39.2 mm 1.9° 988.8 hPa 2.4 m/s 1.1° 993.8 hPa 2.3 m/s 39.2 mm
 08:36     16:40    Daglengte: 8:04 Zondag 24 Jan
01:00 1.3° 989.0 hPa 1.9 m/s 39.2 mm 1.3° 988.5 hPa 1.8 m/s 1.0° 994.4 hPa 2.6 m/s 39.2 mm
04:00 0.9° 988.6 hPa 1.7 m/s 39.2 mm 0.9° 988.1 hPa 1.6 m/s 0.9° 994.5 hPa 2.6 m/s 39.2 mm
07:00 0.6° 988.3 hPa 1.6 m/s 39.2 mm 0.6° 987.7 hPa 1.5 m/s 0.7° 994.7 hPa 2.8 m/s 39.2 mm
10:00 2.0° 989.4 hPa 2.1 m/s 39.2 mm 2.0° 988.9 hPa 2.0 m/s 1.1° 995.4 hPa 3.3 m/s 39.2 mm
13:00 3.5° 990.5 hPa 2.7 m/s 39.2 mm 3.5° 990.0 hPa 2.5 m/s 3.4° 995.5 hPa 4.7 m/s 39.2 mm
16:00 2.8° 990.9 hPa 2.5 m/s 39.4 mm 2.9° 990.5 hPa 2.4 m/s 2.2° 996.2 hPa 3.8 m/s 39.4 mm
19:00 2.2° 991.4 hPa 2.4 m/s 39.6 mm 2.3° 990.9 hPa 2.3 m/s 0.6° 996.6 hPa 3.3 m/s 39.6 mm
22:00 1.8° 991.9 hPa 2.1 m/s 39.6 mm 2.0° 991.5 hPa 2.0 m/s -0.1° 997.2 hPa 3.6 m/s 39.6 mm
 08:35     16:42    Daglengte: 8:07 Maandag 25 Jan
01:00 1.5° 992.5 hPa 1.8 m/s 39.6 mm 1.7° 992.0 hPa 1.7 m/s -0.5° 997.6 hPa 3.0 m/s 39.6 mm
04:00 1.1° 993.4 hPa 1.8 m/s 39.6 mm 1.2° 993.0 hPa 1.8 m/s -0.7° 998.1 hPa 2.1 m/s 39.6 mm
07:00 0.7° 994.4 hPa 1.9 m/s 39.6 mm 0.8° 994.0 hPa 1.9 m/s -0.9° 999.1 hPa 1.8 m/s 39.6 mm
10:00 2.2° 995.5 hPa 2.4 m/s 39.6 mm 2.4° 995.0 hPa 2.4 m/s -0.3° 1001.0 hPa 2.1 m/s 39.6 mm
13:00 3.8° 996.6 hPa 2.9 m/s 39.6 mm 4.0° 996.1 hPa 2.9 m/s 1.9° 1002.2 hPa 2.6 m/s 39.6 mm
16:00 2.7° 998.5 hPa 2.6 m/s 39.6 mm 2.9° 998.0 hPa 2.6 m/s 0.6° 1003.5 hPa 3.0 m/s 39.6 mm
19:00 1.5° 1000.4 hPa 2.4 m/s 39.6 mm 1.7° 1000.0 hPa 2.3 m/s -0.3° 1005.1 hPa 3.4 m/s 39.6 mm
22:00 1.5° 1001.4 hPa 2.5 m/s 39.6 mm 1.6° 1000.9 hPa 2.3 m/s -0.1° 1006.7 hPa 4.5 m/s 39.6 mm
 08:33     16:45    Daglengte: 8:12 Dinsdag 26 Jan
01:00 1.4° 1002.2 hPa 2.7 m/s 39.6 mm 1.5° 1001.8 hPa 2.4 m/s 0.6° 1006.4 hPa 6.0 m/s 39.6 mm
04:00 1.4° 1002.6 hPa 2.4 m/s 40.3 mm 1.3° 1002.2 hPa 2.1 m/s 2.6° 1006.2 hPa 4.8 m/s 40.3 mm
07:00 1.2° 1002.9 hPa 2.2 m/s 40.9 mm 1.1° 1002.7 hPa 1.9 m/s 2.5° 1005.6 hPa 5.3 m/s 40.9 mm
10:00 2.5° 1003.1 hPa 2.4 m/s 41.2 mm 2.5° 1002.8 hPa 2.2 m/s 2.6° 1006.0 hPa 3.7 m/s 41.2 mm
13:00 3.9° 1003.2 hPa 2.8 m/s 41.3 mm 3.9° 1002.9 hPa 2.6 m/s 4.1° 1006.3 hPa 4.9 m/s 41.3 mm
16:00 2.7° 1003.3 hPa 2.3 m/s 41.3 mm 2.7° 1003.0 hPa 2.2 m/s 2.2° 1005.8 hPa 3.4 m/s 41.3 mm
19:00 1.5° 1003.3 hPa 2.0 m/s 41.4 mm 1.5° 1003.2 hPa 1.9 m/s 1.5° 1004.7 hPa 3.6 m/s 41.4 mm
 08:31     16:47    Daglengte: 8:16 Woensdag 27 Jan
01:00 0.4° 1001.2 hPa 2.4 m/s 44.2 mm 0.4° 1001.6 hPa 2.0 m/s 0.7° 996.9 hPa 6.9 m/s 44.2 mm
07:00 0.2° 1000.3 hPa 1.9 m/s 45.9 mm 0.1° 1000.9 hPa 1.9 m/s 1.7° 993.9 hPa 2.3 m/s 45.9 mm
13:00 2.5° 1001.0 hPa 2.8 m/s 46.9 mm 2.2° 1001.8 hPa 2.4 m/s 5.4° 992.2 hPa 7.3 m/s 46.9 mm
19:00 1.6° 1001.0 hPa 3.1 m/s 47.9 mm 1.2° 1001.9 hPa 2.5 m/s 5.5° 990.6 hPa 9.8 m/s 47.9 mm
 08:29     16:49    Daglengte: 8:20 Donderdag 28 Jan
01:00 0.8° 1003.4 hPa 2.7 m/s 48.1 mm 0.6° 1004.1 hPa 2.1 m/s 3.2° 996.0 hPa 9.8 m/s 48.1 mm
07:00 -0.1° 1003.2 hPa 1.4 m/s 48.2 mm -0.3° 1003.7 hPa 1.1 m/s 2.0° 997.2 hPa 4.5 m/s 48.2 mm
13:00 1.7° 1002.9 hPa 2.7 m/s 48.2 mm 1.7° 1003.3 hPa 2.6 m/s 2.0° 999.0 hPa 4.4 m/s 48.2 mm
19:00 0.5° 1002.1 hPa 2.1 m/s 48.2 mm 0.5° 1002.0 hPa 2.0 m/s 0.0° 1003.4 hPa 3.3 m/s 48.2 mm
 08:28     16:51    Daglengte: 8:23 Vrijdag 29 Jan
01:00 0.8° 1009.4 hPa 2.4 m/s 48.2 mm 0.8° 1009.4 hPa 2.4 m/s 48.2 mm
07:00 1.3° 1011.8 hPa 4.2 m/s 48.2 mm 1.3° 1011.8 hPa 4.2 m/s 48.2 mm
13:00 3.8° 1013.0 hPa 4.4 m/s 48.2 mm 3.8° 1013.0 hPa 4.4 m/s 48.2 mm
19:00 2.6° 1003.3 hPa 0.3 m/s 0.7 mm
 08:26     16:53    Daglengte: 8:27 Zaterdag 30 Jan
01:00 2.5° 1003.5 hPa 1.2 m/s 0.7 mm
07:00 1.9° 1002.7 hPa 0.9 m/s 0.4 mm
13:00 2.8° 1001.9 hPa 2.6 m/s 0.6 mm
19:00 2.1° 1000.3 hPa 2.2 m/s 1.4 mm
 08:24     16:56    Daglengte: 8:32 Zondag 31 Jan
01:00 2.0° 999.5 hPa 2.9 m/s 1.6 mm
07:00 2.1° 997.6 hPa 2.1 m/s 1.7 mm
13:00 3.3° 998.3 hPa 1.1 m/s 0.0 mm
19:00 2.5° 998.0 hPa 1.2 m/s 0.9 mm
 08:22     16:58    Daglengte: 8:36 Maandag 01 Feb
01:00 2.4° 998.0 hPa 1.1 m/s 0.0 mm
07:00 1.9° 997.2 hPa 1.8 m/s 0.4 mm
13:00 2.8° 997.9 hPa 1.1 m/s 1.2 mm
19:00 1.8° 998.4 hPa 1.4 m/s 0.5 mm
 08:20     17:00    Daglengte: 8:40 Dinsdag 02 Feb
01:00 1.6° 999.4 hPa 1.7 m/s 0.7 mm
07:00 1.4° 999.7 hPa 1.9 m/s 0.5 mm
13:00 2.6° 1001.0 hPa 1.6 m/s 0.5 mm
19:00 1.8° 1002.2 hPa 1.4 m/s 0.5 mm
 08:18     17:02    Daglengte: 8:44 Woensdag 03 Feb
01:00 1.7° 1003.2 hPa 1.8 m/s 0.6 mm
07:00 1.6° 1003.3 hPa 2.3 m/s 0.5 mm
13:00 2.9° 1004.8 hPa 1.3 m/s 0.7 mm
FMI Hirlam - 7.5 km EWN WRFDA - 12 km DWD ICON - 7 km GFS - 25 km Basiskaart






























































Updatetijd (Europe/Amsterdam) Resolutie Lengte Stap
FMI Hirlam 18:15, 00:15, 06:15, 12:15 7.5 km 49h 1h
EWN WRFDA 15:30, 21:30, 03:30, 09:30 12 km 73h 1h
DWD ICON 17:15, 23:15, 05:15, 11:15 7 km 75h 1h
GFS 18:45, 00:45, 06:45, 12:45 25 km 237h 3h
30+ mm
25-30 mm
20-25 mm
15-20 mm
10-15 mm
6-10 mm
4-6 mm
2-4 mm
1-2 mm
0.5-1 mm
0.2-0.5 mm
0.1-0.2 mm
30+ mm
25-30 mm
20-25 mm
15-20 mm
10-15 mm
6-10 mm
4-6 mm
2-4 mm
1-2 mm
0.5-1 mm
0.2-0.5 mm
0.1-0.2 mm
Sneeuwval
Natte sneeuw
Hagel
Vorst
30+ mm
25-30 mm
20-25 mm
15-20 mm
10-15 mm
6-10 mm
4-6 mm
2-4 mm
1-2 mm
0.5-1 mm
0.2-0.5 mm
0.1-0.2 mm
Sneeuwval
Natte sneeuw
Hagel
Vorst
Onweer
50 mm
40 mm
30 mm
26 mm
22 mm
18 mm
14 mm
10 mm
9 mm
8 mm
7 mm
6 mm
5 mm
4.5 mm
4 mm
3.5 mm
3 mm
2.5 mm
2 mm
1.5 mm
1 mm
0.8 mm
0.6 mm
0.4 mm
0.2 mm
0.05 mm
35°
30°
25°
20°
15°
10°
-5°
-10°
-15°
-20°
-25°
-30°
-35°
33> m/s
29 m/s
25 m/s
21 m/s
17 m/s
14 m/s
11 m/s
8 m/s
5 m/s
3 m/s
0 m/s
2600 J/kg
2400 J/kg
2200 J/kg
2000 J/kg
1800 J/kg
1600 J/kg
1400 J/kg
1200 J/kg
1000 J/kg
800 J/kg
600 J/kg
400 J/kg
200 J/kg
70 dBZ
65 dBZ
60 dBZ
55 dBZ
50 dBZ
45 dBZ
40 dBZ
35 dBZ
30 dBZ
25 dBZ
20 dBZ
15 dBZ
10 dBZ
5 dBZ
-1 K
-2 K
-3 K
-4 K
-5 K
-6 K
-7 K
-8 K
-9 K
950 m²/s²
900 m²/s²
850 m²/s²
800 m²/s²
750 m²/s²
700 m²/s²
650 m²/s²
600 m²/s²
550 m²/s²
500 m²/s²
450 m²/s²
400 m²/s²
350 m²/s²
300 m²/s²
250 m²/s²
200 m²/s²
150 m²/s²
100 m²/s²
46 m/s
44 m/s
42 m/s
40 m/s
38 m/s
36 m/s
34 m/s
32 m/s
30 m/s
28 m/s
26 m/s
24 m/s
22 m/s
20 m/s
16 m/s
12 m/s
8 m/s
4 m/s
30 m/s
28 m/s
26 m/s
24 m/s
22 m/s
20 m/s
18 m/s
16 m/s
14 m/s
12 m/s
10 m/s
8 m/s
6 m/s
4 m/s
2 m/s
3.0
2.8
2.6
2.4
2.2
2.0
1.8
1.6
1.4
1.2
1.0
0.8
0.6
0.4
0.2
15
14
13
12
11
10
9
8
7
6
5
4
3
2
1
90%
80%
70%
60%
50%
40%
30%
20%
10%
42
40
38
36
34